Simultaneous Nadir Overpasses (SNOs) Predictions

Prediction of SNOs between LANDSAT-8 and NPP Satellite Orbit:

Table of predicted SNOs for the next 14.0 days since TLE Epoch: 10/31/2015
Index Date (LANDSAT-8) Time (LANDSAT-8) Lat,Lon (LANDSAT-8) SZA (LANDSAT-8 ) Date (NPP) Time (NPP) Lat,Lon (NPP) SZA (NPP ) Distance(km) Time Diff (sec)
1 11/01/2015 05:19:33 -70.38, -83.03 95.41 11/01/2015 05:19:01 -70.35, -83.04 95.43 2.54 32
2 11/01/2015 06:09:01 70.22, 84.39 84.45 11/01/2015 06:09:45 70.24, 84.44 84.47 2.98 44
3 11/03/2015 20:46:29 70.67,-134.35 85.73 11/03/2015 20:45:17 70.71,-135.15 85.76 29.92 72
4 11/03/2015 21:36:03 -70.34, 32.79 94.60 11/03/2015 21:35:54 -70.35, 32.74 94.59 2.38 9
5 11/03/2015 22:25:30 70.24,-159.71 85.31 11/03/2015 22:26:38 70.24,-159.79 85.32 3.02 68
6 11/06/2015 13:03:03 70.40, -18.87 86.27 11/06/2015 13:02:04 70.39, -18.88 86.27 0.57 59
7 11/06/2015 13:52:33 -70.29, 148.60 93.84 11/06/2015 13:52:46 -70.29, 148.59 93.83 0.66 13
8 11/06/2015 14:42:11 69.58, -44.75 85.46 11/06/2015 14:43:19 69.61, -43.07 85.51 65.32 68
9 11/09/2015 05:19:33 70.33, 96.91 86.99 11/09/2015 05:18:56 70.35, 96.96 87.01 2.50 37
10 11/09/2015 06:09:03 -70.23, -95.61 93.11 11/09/2015 06:09:38 -70.24, -95.56 93.09 2.59 35
11 11/11/2015 20:46:24 -70.96, 46.11 91.63 11/11/2015 20:45:15 -71.02, 44.32 91.58 64.91 69
12 11/11/2015 21:36:01 70.31,-147.24 87.72 11/11/2015 21:35:47 70.31,-147.20 87.72 1.35 14
13 11/11/2015 22:25:31 -70.20, 20.25
